User: anonymous   Login
Location: Unspecified
(0.0000°N, 0.0000°E)
Time: 00:55:56
(UTC+00:00)
Language:

Nimbus 3 - Orbit

View from above orbital plane
View from above orbital plane
View from above satellite
View from above satellite

Ground track
Ground track

The orbit data is extracted from the following two-line orbital elements,

1  3890U 69037A   17324.62606707 -.00000016 +00000-0 +50071-4 0  9991
2  3890 099.9403 233.0878 0039949 031.3305 028.9591 13.42516400380692
Epoch (UTC): 20 November 2017 15:01:32
Eccentricity: 0.0039949
inclination: 99.9403°
perigee height: 1070 km
apogee height: 1130 km
right ascension of ascending node: 233.0878°
argument of perigee: 31.3305°
revolutions per day: 13.42516400
mean anomaly at epoch: 28.9591°
orbit number at epoch: 38069

The dashed part of the orbit path shows where the satellite is in the earth's shadow,  

DLR